Welcome to the New NWS' Forecast!
Most changes are behind the scenes, but click here for differences you might notice.

Regional Weather Roundup (RWR)

Issued by Gray - Portland, ME (GYX)

                            
000
ASUS41 KGYX 220710
RWRGYX
WEATHER ROUNDUP FOR MAINE AND NEW HAMPSHIRE
NATIONAL WEATHER SERVICE GRAY ME
300 AM EDT MON OCT 22 2018

MEZ002-005-006-010-012-015-018-020-021-024-026-027-029-220800-
MAINE
  
CITY           SKY/WX    TMP DP  RH WIND       PRES   REMARKS
PORTLAND       FAIR      30  21  69 W3        30.05R                  
SANFORD        FAIR      34  22  61 W10       30.06R                  
BAR HARBOR     FAIR      31  22  69 W5        29.98R                  
WISCASSET      CLOUDY    35  25  66 CALM      30.04R                  
ROCKLAND       FAIR      27  22  81 W5        30.01R                  
FRYEBURG       FAIR      35  16  45 W10G18    30.03R                  
LEWISTONAUBURN FAIR      36  20  52 W3        30.03R                  
AUGUSTA        CLOUDY    35  20  54 VRB5      30.00R                  
WATERVILLE     CLOUDY    35  19  52 VRB6      29.97R                  
BANGOR         FAIR      31  20  63 W6        29.97S                  
GREENVILLE       N/A     28  20  71 W8G21     29.88R                  
MILLINOCKET    FAIR      32  19  58 W7        29.93R                  
HOULTON        FAIR      27  17  66 W6        29.86R                  
PRESQUE ISLE   FAIR      27  17  66 W3        29.86R                  
FRENCHVILLE    FAIR      27  13  55 W15G24    29.80R WCI  15          
CARIBOU        FAIR      26  16  65 W3        29.83R                  
$$

NHZ002-005-008-009-011-012-014-220800-
NEW HAMPSHIRE
  
CITY           SKY/WX    TMP DP  RH WIND       PRES   REMARKS
PORTSMOUTH     CLOUDY    35  18  49 W10       30.07R                  
ROCHESTER      FAIR      34  20  56 VRB3      30.06R                  
NASHUA         FAIR      28  25  88 CALM      30.11R                  
MANCHESTER     FAIR      34  20  56 W3        30.08R                  
CONCORD        FAIR      32  18  56 NW7       30.09R                  
LACONIA        FAIR      33  19  56 SW7       30.07R                  
PLYMOUTH       FAIR      32  20  62 W3        30.07R                  
BERLIN         CLOUDY    32  20  61 W8        30.01R                  
WHITEFIELD     CLOUDY    32  22  66 W5        30.03S                  
JAFFREY        FAIR      31  19  61 W6        30.07S                  
KEENE          FAIR      23  22  96 CALM      30.11R                  
LEBANON        CLOUDY    27  20  75 S3        30.09R                  
MT WASHINGTON  SNOW       7   7 100 NW60G66     N/A  VSB 1/16WCI -23  
$$

VTZ005-007-008-220800-
VERMONT
  
CITY           SKY/WX    TMP DP  RH WIND       PRES   REMARKS
ST JOHNSBURY     N/A     32  22  66 MISG      30.05R                  
MONTPELIER     CLOUDY    32  17  54 NW9G21    30.08S                  
BURLINGTON     CLOUDY    37  18  46 NW8       30.10S                  
$$

MAZ007-012-024-CTZ003-RIZ002-NYZ038-NYZ072-220800-
SOUTHERN NEW ENGLAND AND NY
  
CITY           SKY/WX    TMP DP  RH WIND       PRES   REMARKS
BOSTON         FAIR      38  20  48 W8        30.12R                  
WORCESTER      FAIR      26  20  77 SW7       30.09R                  
NANTUCKET      FAIR      38  22  52 NW12G20   30.12R                  
PROVIDENCE     FAIR      28  25  88 CALM      30.15R                  
HARTFORD       FAIR      28  25  88 W5        30.14S                  
ALBANY         CLOUDY    37  30  75 CALM      30.14S                  
NEW YORK CITY  FAIR      43  25  49 NW10      30.20R                  
$$

ANZ081-ANZ082-ANZ150-NHZ014-MEZ023>029-220800-
COASTAL MARINE OBSERVATIONS
  
STATION/POSITION TIME  TEMP    WIND        PRES    WAVE
                       AIR SEA DIR/SP/G            HT/PER
                 (UTC) (F)     (DEG/KT/KT) (MB)    (FT/S)
MOUNT DESERT ROC 0700   39     290/ 25/ 27 1015.2R
MATINICUS ROCK   0600   40     290/ 23/ 25 1014.9R
ISLE OF SHOALS   0600   38     280/ 17/ 19 1017.6R
JEFFREYS LEDGE   0636      55                N/A     4/ 5
$$

.............KEY..............
   WCI - WIND CHILL
   TC  - TEMPERATURE IN CELSIUS
   VSB - VISIBILITY IN MILES
   HX  - HEAT INDEX
   FAIR- INDICATES FEW OR NO CLOUDS BELOW 12,000 FT, WITH NO 
         SIGNIFICANT WEATHER AND/OR OBSTRUCTIONS TO VISIBILITY.